Location: Henau
(47.4548°N, 9.1164°E)
Time: 03:01:11
(UTC+00:00)

Cosmos 864 Rocket - Pass Details

Date: 03 March 2021
Orbit: 954 x 990 km, 82.9° (Epoch: 12 April)

Event Time Altitude Azimuth Distance (km) Brightness Sun altitude
Rises 19:04:42 0° 178° (S) 3,623 7.3 -19.8°
Reaches altitude 10° 19:07:11 10° 176° (S) 2,684 6.6 -20.2°
Maximum altitude 19:13:16 69° 94° (E) 1,032 4.4 -21.2°
Drops below altitude 10° 19:19:27 10° 13° (NNE) 2,725 6.9 -22.2°
Sets 19:21:59 0° 11° (NNE) 3,682 7.6 -22.6°
